Regional Weather Roundup
Issued by NWS Spokane, WA

Home | Current Version | Previous Version | Text Only | Print | Product List | Glossary On
Versions: 1 2 3 4 5 6 7 8 9 10 11 12 13 14 15 16 17 18 19 20 21 22 23 24 25 26 27 28 29 30 31 32 33 34 35 36 37 38 39 40 41 42 43 44 45 46 47 48 49 50
000
NZUS01 KOTX 271925
RWROTX

Eastern Washington/Northern Idaho Roundup
National Weather Service, Spokane WA
1200 PM PDT SAT MAY 27 2017

Note: "fair" indicated few or no clouds below 12,000 feet with no
significant weather and/or obstructions to visibility.

...Northeast Washington and Northern Idaho Panhandle...

CITY           SKY/WX    TMP DP  RH WIND       PRES   REMARKS
Spokane Intl   MOSUNNY   73  42  32 SW12      30.15R
Spokane Downto MOSUNNY   76  45  33 VRB7      30.14S
Coeur d Alene  SUNNY     74  48  39 W5        30.16S
Deer Park      SUNNY     72  44  36 SW7       30.15S
Sandpoint      SUNNY     70  46  43 SE7       30.14S
Bonners Ferry  FAIR      70  45  40 SE5       30.12F

...Southeast Washington and southern Idaho Panhandle...

CITY           SKY/WX    TMP DP  RH WIND       PRES   REMARKS
Walla Walla    SUNNY     80  40  23 SW8       30.10S
Pullman/Moscow SUNNY     73  43  33 S9        30.19R
Lewiston       SUNNY     75  47  36 VRB5      30.13F
Lowell           N/A     75  44  33 S3        30.12F
Grangeville    FAIR      66  37  34 CALM      30.20S

...Columbia Basin...

CITY           SKY/WX    TMP DP  RH WIND       PRES   REMARKS
Ephrata        SUNNY     80  40  23 S6        30.09S
Moses Lake     SUNNY     79  42  26 VRB7      30.11R
Pasco          SUNNY     83  42  23 W7        30.08F
Richland       CLEAR     85  44  24 CALM      30.08S
Hermiston      SUNNY     81  39  22 CALM      30.08F
Pendleton      SUNNY     79  34  19 VRB5      30.10F

...East Slopes Cascades...

CITY           SKY/WX    TMP DP  RH WIND       PRES   REMARKS
The Dalles     SUNNY     81  44  27 SE3       30.06F
Yakima         SUNNY     82  44  26 E7        30.09F
Ellensburg     SUNNY     79  47  32 E6        30.11S
Stampede Pass  SUNNY     69  39  33 CALM      30.19S
Wenatchee      SUNNY     77  40  26 SE8       30.08F
Omak           SUNNY     76  45  33 SW5       30.09S
Chelan           N/A     43  30  61 MISG        N/A
Sunnyside      CLEAR     78  46  31 E6        30.09S

...Southern British Columbia...

CITY           SKY/WX    TMP DP  RH WIND       PRES   REMARKS
Penticton      MOSUNNY   75  48  38 N7        30.06F
Castlegar      MOSUNNY   73  41  31 NW2       30.09F
Cranbrook      MOSUNNY   70  39  32 VRB6      30.11F
Osoyoos          N/A     77  45  31 SW5         N/A
Creston          N/A     70  48  46 W2          N/A

...Western Montana...

CITY           SKY/WX    TMP DP  RH WIND       PRES   REMARKS
Kalispell      CLEAR     69  42  37 VRB5      30.13S
Missoula       SUNNY     71  41  33 MISG      30.17F

...Neighboring Cities...

CITY           SKY/WX    TMP DP  RH WIND       PRES   REMARKS
Seattle        SUNNY     75  50  41 NW8       30.10S
Portland       MOSUNNY   75  50  41 VRB6      30.05F
Boise          SUNNY     72  41  32 N7        30.18F
Great Falls    PTSUNNY   70  32  24 NW13      30.09R
Calgary        MOSUNNY   73  37  27 N13G20    30.03S



USA.gov is the U.S. government's official web portal to all federal, state and local government web resources and services.